�N����,����,�g�[���i���ԁj���x,�g�[�����x,��g�[���i���ցj���x,����
 2003/05/01, 0:00,-9.9,-9.9,20.5,18.5
 2003/05/01, 0:15,-9.9,-9.9,20.5,18.5
 2003/05/01, 0:30,-9.9,-9.9,20.3,18.7
 2003/05/01, 0:45,-9.9,-9.9,20.2,18.8
 2003/05/01, 1:00,-9.9,-9.9,20.1,18.9
 2003/05/01, 1:15,-9.9,-9.9,20,19
 2003/05/01, 1:30,-9.9,-9.9,19.9,19.1
 2003/05/01, 1:45,-9.9,-9.9,19.9,19.1
 2003/05/01, 2:00,-9.9,-9.9,19.9,19.2
 2003/05/01, 2:15,-9.9,-9.9,19.8,19.4
 2003/05/01, 2:30,-9.9,-9.9,19.8,19.4
 2003/05/01, 2:45,-9.9,-9.9,19.7,19.5
 2003/05/01, 3:00,-9.9,-9.9,19.7,19.6
 2003/05/01, 3:15,-9.9,-9.9,19.6,19.6
 2003/05/01, 3:30,-9.9,-9.9,19.6,19.7
 2003/05/01, 3:45,-9.9,-9.9,19.5,19.8
 2003/05/01, 4:00,-9.9,-9.9,19.5,19.8
 2003/05/01, 4:15,-9.9,-9.9,19.5,19.9
 2003/05/01, 4:30,-9.9,-9.9,19.4,20
 2003/05/01, 4:45,-9.9,-9.9,19.4,20
 2003/05/01, 5:00,-9.9,-9.9,19.3,20.1
 2003/05/01, 5:15,-9.9,-9.9,19.3,20.2
 2003/05/01, 5:30,-9.9,-9.9,19.2,20.2
 2003/05/01, 5:45,-9.9,-9.9,19.1,19.1
 2003/05/01, 6:00,-9.9,-9.9,19,19.2
 2003/05/01, 6:15,-9.9,-9.9,19,18.4
 2003/05/01, 6:30,-9.9,-9.9,18.9,16.4
 2003/05/01, 6:45,-9.9,-9.9,18.9,16.4
 2003/05/01, 7:00,-9.9,-9.9,18.9,15.5
 2003/05/01, 7:15,-9.9,-9.9,18.9,14.8
 2003/05/01, 7:30,-9.9,-9.9,18.9,14.9
 2003/05/01, 7:45,-9.9,-9.9,19,15.1
 2003/05/01, 8:00,-9.9,-9.9,19,16.2
 2003/05/01, 8:15,-9.9,-9.9,19,16.6
 2003/05/01, 8:30,-9.9,-9.9,19,16.8
 2003/05/01, 8:45,-9.9,-9.9,19.1,16.9
 2003/05/01, 9:00,-9.9,-9.9,19.2,17
 2003/05/01, 9:15,-9.9,-9.9,19.2,17.1
 2003/05/01, 9:30,-9.9,-9.9,19.2,17.2
 2003/05/01, 9:45,-9.9,-9.9,19.3,17.4
 2003/05/01,10:00,-9.9,-9.9,19.4,17.5
 2003/05/01,10:15,-9.9,-9.9,19.5,17.5
 2003/05/01,10:30,-9.9,-9.9,19.5,17.7
 2003/05/01,10:45,-9.9,-9.9,19.6,17.9
 2003/05/01,11:00,-9.9,-9.9,19.7,17.9
 2003/05/01,11:15,-9.9,-9.9,19.8,18
 2003/05/01,11:30,-9.9,-9.9,19.9,18.1
 2003/05/01,11:45,-9.9,-9.9,20,18.2
 2003/05/01,12:00,-9.9,-9.9,20,18.3
 2003/05/01,12:15,-9.9,-9.9,20.1,18.2
 2003/05/01,12:30,-9.9,-9.9,20.3,18.3
 2003/05/01,12:45,-9.9,-9.9,20.4,18.4
 2003/05/01,13:00,-9.9,-9.9,20.5,18.5
 2003/05/01,13:15,-9.9,-9.9,20.5,18.5
 2003/05/01,13:30,-9.9,-9.9,20.7,18.7
 2003/05/01,13:45,-9.9,-9.9,20.8,18.8
 2003/05/01,14:00,-9.9,-9.9,20.9,18.8
 2003/05/01,14:15,-9.9,-9.9,21,19
 2003/05/01,14:30,-9.9,-9.9,21.2,19
 2003/05/01,14:45,-9.9,-9.9,21.4,19.1
 2003/05/01,15:00,-9.9,-9.9,21.5,19.2
 2003/05/01,15:15,-9.9,-9.9,21.5,19.1
 2003/05/01,15:30,-9.9,-9.9,21.7,19.1
 2003/05/01,15:45,-9.9,-9.9,21.8,19.1
 2003/05/01,16:00,-9.9,-9.9,21.9,19.2
 2003/05/01,16:15,-9.9,-9.9,22,19.4
 2003/05/01,16:30,-9.9,-9.9,22.1,19.4
 2003/05/01,16:45,-9.9,-9.9,22.2,19.5
 2003/05/01,17:00,-9.9,-9.9,22.4,19.6
 2003/05/01,17:15,-9.9,-9.9,22.5,18.6
 2003/05/01,17:30,-9.9,-9.9,22.5,18.7
 2003/05/01,17:45,-9.9,-9.9,22.5,18.2
 2003/05/01,18:00,-9.9,-9.9,22.5,17.8
 2003/05/01,18:15,-9.9,-9.9,22.4,18
 2003/05/01,18:30,-9.9,-9.9,22.4,18.1
 2003/05/01,18:45,-9.9,-9.9,22.4,18.2
 2003/05/01,19:00,-9.9,-9.9,22.4,18.3
 2003/05/01,19:15,-9.9,-9.9,22.5,18.5
 2003/05/01,19:30,-9.9,-9.9,22.4,18.6
 2003/05/01,19:45,-9.9,-9.9,22.4,18.8
 2003/05/01,20:00,-9.9,-9.9,22.3,18.8
 2003/05/01,20:15,-9.9,-9.9,22.3,17.9
 2003/05/01,20:30,-9.9,-9.9,22.3,17
 2003/05/01,20:45,-9.9,-9.9,22.2,17.1
 2003/05/01,21:00,-9.9,-9.9,22.3,17.7
 2003/05/01,21:15,-9.9,-9.9,22.3,17.9
 2003/05/01,21:30,-9.9,-9.9,22.3,18
 2003/05/01,21:45,-9.9,-9.9,22.3,15.9
 2003/05/01,22:00,-9.9,-9.9,22.3,16.2
 2003/05/01,22:15,-9.9,-9.9,22.3,16.4
 2003/05/01,22:30,-9.9,-9.9,22.3,16.5
 2003/05/01,22:45,-9.9,-9.9,22.2,16.7
 2003/05/01,23:00,-9.9,-9.9,22.2,17.2
 2003/05/01,23:15,-9.9,-9.9,22.2,17.2
 2003/05/01,23:30,-9.9,-9.9,22.1,17.4
 2003/05/01,23:45,-9.9,-9.9,22.1,17.5
 2003/05/02, 0:00,-9.9,-9.9,22,17.7
 2003/05/02, 0:15,-9.9,-9.9,22,17.9
 2003/05/02, 0:30,-9.9,-9.9,21.9,18
 2003/05/02, 0:45,-9.9,-9.9,21.8,18
 2003/05/02, 1:00,-9.9,-9.9,21.7,18.2
 2003/05/02, 1:15,-9.9,-9.9,21.6,18.4
 2003/05/02, 1:30,-9.9,-9.9,21.6,18.5
 2003/05/02, 1:45,-9.9,-9.9,21.5,18.5
 2003/05/02, 2:00,-9.9,-9.9,21.5,18.7
 2003/05/02, 2:15,-9.9,-9.9,21.4,18.8
 2003/05/02, 2:30,-9.9,-9.9,21.3,18.9
 2003/05/02, 2:45,-9.9,-9.9,21.2,19
 2003/05/02, 3:00,-9.9,-9.9,21.2,19.1
 2003/05/02, 3:15,-9.9,-9.9,21.1,19.2
 2003/05/02, 3:30,-9.9,-9.9,21.1,19.3
 2003/05/02, 3:45,-9.9,-9.9,21,19.4
 2003/05/02, 4:00,-9.9,-9.9,20.9,19.5
 2003/05/02, 4:15,-9.9,-9.9,20.9,19.6
 2003/05/02, 4:30,-9.9,-9.9,20.8,19.7
 2003/05/02, 4:45,-9.9,-9.9,20.8,19.5
 2003/05/02, 5:00,-9.9,-9.9,20.7,19.3
 2003/05/02, 5:15,-9.9,-9.9,20.6,19.4
 2003/05/02, 5:30,-9.9,-9.9,20.6,19.5
 2003/05/02, 5:45,-9.9,-9.9,20.5,18.9
 2003/05/02, 6:00,-9.9,-9.9,20.5,18.9
 2003/05/02, 6:15,-9.9,-9.9,20.5,18.5
 2003/05/02, 6:30,-9.9,-9.9,20.6,18
 2003/05/02, 6:45,-9.9,-9.9,20.6,18.1
 2003/05/02, 7:00,-9.9,-9.9,20.6,18.3
 2003/05/02, 7:15,-9.9,-9.9,20.6,14.6
 2003/05/02, 7:30,-9.9,-9.9,20.5,14.6
 2003/05/02, 7:45,-9.9,-9.9,20.5,15.1
 2003/05/02, 8:00,-9.9,-9.9,20.6,15.7
 2003/05/02, 8:15,-9.9,-9.9,20.6,15.6
 2003/05/02, 8:30,-9.9,-9.9,20.7,15.3
 2003/05/02, 8:45,-9.9,-9.9,20.8,15.5
 2003/05/02, 9:00,-9.9,-9.9,20.8,15.6
 2003/05/02, 9:15,-9.9,-9.9,20.9,15.8
 2003/05/02, 9:30,-9.9,-9.9,21,16
 2003/05/02, 9:45,-9.9,-9.9,21,16.1
 2003/05/02,10:00,-9.9,-9.9,21.2,16.3
 2003/05/02,10:15,-9.9,-9.9,21.3,16.5
 2003/05/02,10:30,-9.9,-9.9,21.4,16.6
 2003/05/02,10:45,-9.9,-9.9,21.5,16.8
 2003/05/02,11:00,-9.9,-9.9,21.6,16.9
 2003/05/02,11:15,-9.9,-9.9,21.8,17
 2003/05/02,11:30,-9.9,-9.9,21.8,17.2
 2003/05/02,11:45,-9.9,-9.9,22,17.4
 2003/05/02,12:00,-9.9,-9.9,22,17.4
 2003/05/02,12:15,-9.9,-9.9,22.1,17.5
 2003/05/02,12:30,-9.9,-9.9,22.2,17.7
 2003/05/02,12:45,-9.9,-9.9,22.3,17.9
 2003/05/02,13:00,-9.9,-9.9,22.4,18.1
 2003/05/02,13:15,-9.9,-9.9,22.5,18.2
 2003/05/02,13:30,-9.9,-9.9,22.6,18.3
 2003/05/02,13:45,-9.9,-9.9,22.7,18.5
 2003/05/02,14:00,-9.9,-9.9,22.8,18.6
 2003/05/02,14:15,-9.9,-9.9,23,18.6
 2003/05/02,14:30,-9.9,-9.9,23,18.8
 2003/05/02,14:45,-9.9,-9.9,23.1,19
 2003/05/02,15:00,-9.9,-9.9,23.2,19
 2003/05/02,15:15,-9.9,-9.9,23.3,19.1
 2003/05/02,15:30,-9.9,-9.9,23.4,19.3
 2003/05/02,15:45,-9.9,-9.9,23.5,19.4
 2003/05/02,16:00,-9.9,-9.9,23.6,19.5
 2003/05/02,16:15,-9.9,-9.9,23.6,19.6
 2003/05/02,16:30,-9.9,-9.9,23.7,19.7
 2003/05/02,16:45,-9.9,-9.9,23.8,19.8
 2003/05/02,17:00,-9.9,-9.9,23.9,19.9
 2003/05/02,17:15,-9.9,-9.9,23.9,20
 2003/05/02,17:30,-9.9,-9.9,24,20.2
 2003/05/02,17:45,-9.9,-9.9,24,20.3
 2003/05/02,18:00,-9.9,-9.9,23.9,20.4
 2003/05/02,18:15,-9.9,-9.9,23.9,18.2
 2003/05/02,18:30,-9.9,-9.9,23.9,18.3
 2003/05/02,18:45,-9.9,-9.9,23.9,18.5
 2003/05/02,19:00,-9.9,-9.9,24,18.8
 2003/05/02,19:15,-9.9,-9.9,24,18.9
 2003/05/02,19:30,-9.9,-9.9,24.2,19
 2003/05/02,19:45,-9.9,-9.9,24.2,19.1
 2003/05/02,20:00,-9.9,-9.9,24.3,19.2
 2003/05/02,20:15,-9.9,-9.9,24.4,19.5
 2003/05/02,20:30,-9.9,-9.9,24.4,19.8
 2003/05/02,20:45,-9.9,-9.9,24.3,19.5
 2003/05/02,21:00,-9.9,-9.9,24.3,17.4
 2003/05/02,21:15,-9.9,-9.9,24.3,17.5
 2003/05/02,21:30,-9.9,-9.9,24.3,17.8
 2003/05/02,21:45,-9.9,-9.9,24.2,17.6
 2003/05/02,22:00,-9.9,-9.9,24.2,17.6
 2003/05/02,22:15,-9.9,-9.9,24.1,17.8
 2003/05/02,22:30,-9.9,-9.9,24.1,17.9
 2003/05/02,22:45,-9.9,-9.9,24.1,18
 2003/05/02,23:00,-9.9,-9.9,24.1,18.2
 2003/05/02,23:15,-9.9,-9.9,24,18.6
 2003/05/02,23:30,-9.9,-9.9,24,18.7
 2003/05/02,23:45,-9.9,-9.9,23.9,18.5
 2003/05/03, 0:00,-9.9,-9.9,23.9,18.3
 2003/05/03, 0:15,-9.9,-9.9,23.8,18.4
 2003/05/03, 0:30,-9.9,-9.9,23.7,18.5
 2003/05/03, 0:45,-9.9,-9.9,23.7,18.6
 2003/05/03, 1:00,-9.9,-9.9,23.6,18.8
 2003/05/03, 1:15,-9.9,-9.9,23.6,19
 2003/05/03, 1:30,-9.9,-9.9,23.5,19.1
 2003/05/03, 1:45,-9.9,-9.9,23.5,19.1
 2003/05/03, 2:00,-9.9,-9.9,23.4,19.3
 2003/05/03, 2:15,-9.9,-9.9,23.4,19.5
 2003/05/03, 2:30,-9.9,-9.9,23.3,19.5
 2003/05/03, 2:45,-9.9,-9.9,23.2,19.6
 2003/05/03, 3:00,-9.9,-9.9,23.2,19.8
 2003/05/03, 3:15,-9.9,-9.9,23.1,19.9
 2003/05/03, 3:30,-9.9,-9.9,23.1,20
 2003/05/03, 3:45,-9.9,-9.9,23,20.1
 2003/05/03, 4:00,-9.9,-9.9,23,20.2
 2003/05/03, 4:15,-9.9,-9.9,22.9,20.4
 2003/05/03, 4:30,-9.9,-9.9,22.9,20.5
 2003/05/03, 4:45,-9.9,-9.9,22.8,20.5
 2003/05/03, 5:00,-9.9,-9.9,22.7,20.7
 2003/05/03, 5:15,-9.9,-9.9,22.7,20.8
 2003/05/03, 5:30,-9.9,-9.9,22.7,20.9
 2003/05/03, 5:45,-9.9,-9.9,22.6,19.4
 2003/05/03, 6:00,-9.9,-9.9,22.5,17.2
 2003/05/03, 6:15,-9.9,-9.9,22.5,17.4
 2003/05/03, 6:30,-9.9,-9.9,22.5,16.5
 2003/05/03, 6:45,-9.9,-9.9,22.5,16.6
 2003/05/03, 7:00,-9.9,-9.9,22.7,16.8
 2003/05/03, 7:15,-9.9,-9.9,22.7,17.1
 2003/05/03, 7:30,-9.9,-9.9,22.7,16.9
 2003/05/03, 7:45,-9.9,-9.9,22.8,17.2
 2003/05/03, 8:00,-9.9,-9.9,22.8,17.5
 2003/05/03, 8:15,-9.9,-9.9,22.9,17.6
 2003/05/03, 8:30,-9.9,-9.9,22.9,17.8
 2003/05/03, 8:45,-9.9,-9.9,22.9,18.1
 2003/05/03, 9:00,-9.9,-9.9,22.9,18.2
 2003/05/03, 9:15,-9.9,-9.9,22.9,18.4
 2003/05/03, 9:30,-9.9,-9.9,22.9,18.5
 2003/05/03, 9:45,-9.9,-9.9,23,18.5
 2003/05/03,10:00,-9.9,-9.9,23.1,18.7
 2003/05/03,10:15,-9.9,-9.9,23.2,18.9
 2003/05/03,10:30,-9.9,-9.9,23.3,18.9
 2003/05/03,10:45,-9.9,-9.9,23.4,19
 2003/05/03,11:00,-9.9,-9.9,23.4,19.1
 2003/05/03,11:15,-9.9,-9.9,23.5,19.2
 2003/05/03,11:30,-9.9,-9.9,23.5,19.4
 2003/05/03,11:45,-9.9,-9.9,23.6,19.5
 2003/05/03,12:00,-9.9,-9.9,23.7,19.6
 2003/05/03,12:15,-9.9,-9.9,23.8,19.6
 2003/05/03,12:30,-9.9,-9.9,23.9,19.8
 2003/05/03,12:45,-9.9,-9.9,23.9,19.9
 2003/05/03,13:00,-9.9,-9.9,24,20
 2003/05/03,13:15,-9.9,-9.9,24,20.1
 2003/05/03,13:30,-9.9,-9.9,24.1,20.2
 2003/05/03,13:45,-9.9,-9.9,24.2,20.4
 2003/05/03,14:00,-9.9,-9.9,24.3,20.5
 2003/05/03,14:15,-9.9,-9.9,24.5,20.6
 2003/05/03,14:30,-9.9,-9.9,24.5,20.7
 2003/05/03,14:45,-9.9,-9.9,24.6,20.9
 2003/05/03,15:00,-9.9,-9.9,24.7,20.9
 2003/05/03,15:15,-9.9,-9.9,24.8,21
 2003/05/03,15:30,-9.9,-9.9,24.9,21.1
 2003/05/03,15:45,-9.9,-9.9,25,21.2
 2003/05/03,16:00,-9.9,-9.9,25.1,21.4
 2003/05/03,16:15,-9.9,-9.9,25.2,21.5
 2003/05/03,16:30,-9.9,-9.9,25.4,21.6
 2003/05/03,16:45,-9.9,-9.9,25.5,21.8
 2003/05/03,17:00,-9.9,-9.9,25.6,21.8
 2003/05/03,17:15,-9.9,-9.9,25.6,22
 2003/05/03,17:30,-9.9,-9.9,25.3,22
 2003/05/03,17:45,-9.9,-9.9,25.3,21
 2003/05/03,18:00,-9.9,-9.9,25.2,20.1
 2003/05/03,18:15,-9.9,-9.9,25.2,20.2
 2003/05/03,18:30,-9.9,-9.9,25.3,20.4
 2003/05/03,18:45,-9.9,-9.9,25.3,20.5
 2003/05/03,19:00,-9.9,-9.9,25.3,20.7
 2003/05/03,19:15,-9.9,-9.9,25.3,18.4
 2003/05/03,19:30,-9.9,-9.9,25.3,18.6
 2003/05/03,19:45,-9.9,-9.9,25.2,18.8
 2003/05/03,20:00,-9.9,-9.9,25.2,18.9
 2003/05/03,20:15,-9.9,-9.9,25.2,17.6
 2003/05/03,20:30,-9.9,-9.9,25.2,17.9
 2003/05/03,20:45,-9.9,-9.9,25.3,17.5
 2003/05/03,21:00,-9.9,-9.9,25.3,16.6
 2003/05/03,21:15,-9.9,-9.9,25.3,16.8
 2003/05/03,21:30,-9.9,-9.9,25.4,17
 2003/05/03,21:45,-9.9,-9.9,25.4,17.2
 2003/05/03,22:00,-9.9,-9.9,25.4,17.4
 2003/05/03,22:15,-9.9,-9.9,25.4,17.5
 2003/05/03,22:30,-9.9,-9.9,25.3,17.8
 2003/05/03,22:45,-9.9,-9.9,25.3,18
 2003/05/03,23:00,-9.9,-9.9,25.3,18.1
 2003/05/03,23:15,-9.9,-9.9,25.2,18.2
 2003/05/03,23:30,-9.9,-9.9,25.2,18.5
 2003/05/03,23:45,-9.9,-9.9,25.2,18.5
 2003/05/04, 0:00,-9.9,-9.9,25.1,18.7
 2003/05/04, 0:15,-9.9,-9.9,25.1,18.9
 2003/05/04, 0:30,-9.9,-9.9,25.1,19
 2003/05/04, 0:45,-9.9,-9.9,25,19.1
 2003/05/04, 1:00,-9.9,-9.9,25,19.3
 2003/05/04, 1:15,-9.9,-9.9,25,19.5
 2003/05/04, 1:30,-9.9,-9.9,24.9,19.6
 2003/05/04, 1:45,-9.9,-9.9,24.9,19.7
 2003/05/04, 2:00,-9.9,-9.9,24.9,19.8
 2003/05/04, 2:15,-9.9,-9.9,24.8,20
 2003/05/04, 2:30,-9.9,-9.9,24.8,20.2
 2003/05/04, 2:45,-9.9,-9.9,24.7,19.9
 2003/05/04, 3:00,-9.9,-9.9,24.7,19.6
 2003/05/04, 3:15,-9.9,-9.9,24.6,19.7
 2003/05/04, 3:30,-9.9,-9.9,24.6,19.5
 2003/05/04, 3:45,-9.9,-9.9,24.5,19.6
 2003/05/04, 4:00,-9.9,-9.9,24.5,19.7
 2003/05/04, 4:15,-9.9,-9.9,24.4,19.9
 2003/05/04, 4:30,-9.9,-9.9,24.3,19.9
 2003/05/04, 4:45,-9.9,-9.9,24.3,20
 2003/05/04, 5:00,-9.9,-9.9,24.2,20.2
 2003/05/04, 5:15,-9.9,-9.9,24.2,20.4
 2003/05/04, 5:30,-9.9,-9.9,24.1,20.5
 2003/05/04, 5:45,-9.9,-9.9,24.1,20.6
 2003/05/04, 6:00,-9.9,-9.9,24,20.8
 2003/05/04, 6:15,-9.9,-9.9,24,20.9
 2003/05/04, 6:30,-9.9,-9.9,23.9,21
 2003/05/04, 6:45,-9.9,-9.9,23.9,21.1
 2003/05/04, 7:00,-9.9,-9.9,23.9,21.2
 2003/05/04, 7:15,-9.9,-9.9,23.9,20.6
 2003/05/04, 7:30,-9.9,-9.9,23.8,20.8
 2003/05/04, 7:45,-9.9,-9.9,23.8,19.8
 2003/05/04, 8:00,-9.9,-9.9,23.8,18.8
 2003/05/04, 8:15,-9.9,-9.9,23.8,18
 2003/05/04, 8:30,-9.9,-9.9,23.9,16.7
 2003/05/04, 8:45,-9.9,-9.9,23.9,16.4
 2003/05/04, 9:00,-9.9,-9.9,23.9,16.7
 2003/05/04, 9:15,-9.9,-9.9,23.9,16.5
 2003/05/04, 9:30,-9.9,-9.9,24,16.6
 2003/05/04, 9:45,-9.9,-9.9,24,16.9
 2003/05/04,10:00,-9.9,-9.9,24.1,17
 2003/05/04,10:15,-9.9,-9.9,24.1,17.1
 2003/05/04,10:30,-9.9,-9.9,24.1,17.3
 2003/05/04,10:45,-9.9,-9.9,24,17.5
 2003/05/04,11:00,-9.9,-9.9,24,17.7
 2003/05/04,11:15,-9.9,-9.9,23.9,17.9
 2003/05/04,11:30,-9.9,-9.9,23.9,18
 2003/05/04,11:45,-9.9,-9.9,24,18.1
 2003/05/04,12:00,-9.9,-9.9,24.3,17.4
 2003/05/04,12:15,-9.9,-9.9,24.5,17.3
 2003/05/04,12:30,-9.9,-9.9,24.5,17.1
 2003/05/04,12:45,-9.9,-9.9,24.5,17.2
 2003/05/04,13:00,-9.9,-9.9,24.7,17.4
 2003/05/04,13:15,-9.9,-9.9,24.8,17.5
 2003/05/04,13:30,-9.9,-9.9,24.9,17.7
 2003/05/04,13:45,-9.9,-9.9,25,17.9
 2003/05/04,14:00,-9.9,-9.9,25.1,18
 2003/05/04,14:15,-9.9,-9.9,25.2,18.1
 2003/05/04,14:30,-9.9,-9.9,25.3,18.3
 2003/05/04,14:45,-9.9,-9.9,25.4,18.5
 2003/05/04,15:00,-9.9,-9.9,25.5,18.6
 2003/05/04,15:15,-9.9,-9.9,25.6,18.8
 2003/05/04,15:30,-9.9,-9.9,25.7,18.9
 2003/05/04,15:45,-9.9,-9.9,25.8,18.9
 2003/05/04,16:00,-9.9,-9.9,25.8,17.2
 2003/05/04,16:15,-9.9,-9.9,26,17.4
 2003/05/04,16:30,-9.9,-9.9,26.1,17.6
 2003/05/04,16:45,-9.9,-9.9,26.1,17.9
 2003/05/04,17:00,-9.9,-9.9,26.2,18
 2003/05/04,17:15,-9.9,-9.9,26.3,18.2
 2003/05/04,17:30,-9.9,-9.9,26.4,18.4
 2003/05/04,17:45,-9.9,-9.9,26.5,18.5
 2003/05/04,18:00,-9.9,-9.9,26.5,18.7
 2003/05/04,18:15,-9.9,-9.9,26.5,19
 2003/05/04,18:30,-9.9,-9.9,26.5,19.1
 2003/05/04,18:45,-9.9,-9.9,26.5,19.2
 2003/05/04,19:00,-9.9,-9.9,26.5,19.4
 2003/05/04,19:15,-9.9,-9.9,26.5,19.1
 2003/05/04,19:30,-9.9,-9.9,26.5,18.3
 2003/05/04,19:45,-9.9,-9.9,26.5,17.5
 2003/05/04,20:00,-9.9,-9.9,26.6,16.3
 2003/05/04,20:15,-9.9,-9.9,26.6,16.5
 2003/05/04,20:30,-9.9,-9.9,26.6,16.8
 2003/05/04,20:45,-9.9,-9.9,26.6,17
 2003/05/04,21:00,-9.9,-9.9,26.5,17.2
 2003/05/04,21:15,-9.9,-9.9,26.5,17.6
 2003/05/04,21:30,-9.9,-9.9,26.5,17.8
 2003/05/04,21:45,-9.9,-9.9,26.5,17.6
 2003/05/04,22:00,-9.9,-9.9,26.5,17.3
 2003/05/04,22:15,-9.9,-9.9,26.5,17.9
 2003/05/04,22:30,-9.9,-9.9,26.4,17.7
 2003/05/04,22:45,-9.9,-9.9,26.3,17.9
 2003/05/04,23:00,-9.9,-9.9,26.3,18.1
 2003/05/04,23:15,-9.9,-9.9,26.2,18.2
 2003/05/04,23:30,-9.9,-9.9,26.1,19.4
 2003/05/04,23:45,-9.9,-9.9,26,19.5
 2003/05/05, 0:00,-9.9,-9.9,26,19.7
 2003/05/05, 0:15,-9.9,-9.9,26,19.8
 2003/05/05, 0:30,-9.9,-9.9,25.9,19.9
 2003/05/05, 0:45,-9.9,-9.9,25.9,20.1
 2003/05/05, 1:00,-9.9,-9.9,25.8,20.5
 2003/05/05, 1:15,-9.9,-9.9,25.8,20.6
 2003/05/05, 1:30,-9.9,-9.9,25.8,20.7
 2003/05/05, 1:45,-9.9,-9.9,25.8,20.9
 2003/05/05, 2:00,-9.9,-9.9,25.7,21
 2003/05/05, 2:15,-9.9,-9.9,25.6,21.1
 2003/05/05, 2:30,-9.9,-9.9,25.6,21.2
 2003/05/05, 2:45,-9.9,-9.9,25.5,21.4
 2003/05/05, 3:00,-9.9,-9.9,25.5,21.5
 2003/05/05, 3:15,-9.9,-9.9,25.5,21.6
 2003/05/05, 3:30,-9.9,-9.9,25.4,21.7
 2003/05/05, 3:45,-9.9,-9.9,25.4,21.9
 2003/05/05, 4:00,-9.9,-9.9,25.3,22
 2003/05/05, 4:15,-9.9,-9.9,25.2,22
 2003/05/05, 4:30,-9.9,-9.9,25.2,22.2
 2003/05/05, 4:45,-9.9,-9.9,25.1,22.2
 2003/05/05, 5:00,-9.9,-9.9,25.1,22.4
 2003/05/05, 5:15,-9.9,-9.9,25,22.5
 2003/05/05, 5:30,-9.9,-9.9,24.9,22.6
 2003/05/05, 5:45,-9.9,-9.9,24.9,22.6
 2003/05/05, 6:00,-9.9,-9.9,24.9,22.8
 2003/05/05, 6:15,-9.9,-9.9,24.8,22.9
 2003/05/05, 6:30,-9.9,-9.9,24.8,22.9
 2003/05/05, 6:45,-9.9,-9.9,24.8,23
 2003/05/05, 7:00,-9.9,-9.9,24.7,23.1
 2003/05/05, 7:15,-9.9,-9.9,24.7,23.2
 2003/05/05, 7:30,-9.9,-9.9,24.7,18.6
 2003/05/05, 7:45,-9.9,-9.9,24.6,17.5
 2003/05/05, 8:00,-9.9,-9.9,24.7,16.4
 2003/05/05, 8:15,-9.9,-9.9,24.7,16.6
 2003/05/05, 8:30,-9.9,-9.9,24.7,16.9
 2003/05/05, 8:45,-9.9,-9.9,24.7,17.1
 2003/05/05, 9:00,-9.9,-9.9,24.7,17.5
 2003/05/05, 9:15,-9.9,-9.9,24.8,17.6
 2003/05/05, 9:30,-9.9,-9.9,24.6,17.9
 2003/05/05, 9:45,-9.9,-9.9,24.8,18
 2003/05/05,10:00,-9.9,-9.9,24.9,18.2
 2003/05/05,10:15,-9.9,-9.9,25,17.6
 2003/05/05,10:30,-9.9,-9.9,25,17.1
 2003/05/05,10:45,-9.9,-9.9,25.1,17.2
 2003/05/05,11:00,-9.9,-9.9,25.1,17.4
 2003/05/05,11:15,-9.9,-9.9,25,18.2
 2003/05/05,11:30,-9.9,-9.9,25.3,18.6
 2003/05/05,11:45,-9.9,-9.9,25.4,18.6
 2003/05/05,12:00,-9.9,-9.9,25.5,18
 2003/05/05,12:15,-9.9,-9.9,25.9,17.6
 2003/05/05,12:30,-9.9,-9.9,26.3,17.9
 2003/05/05,12:45,-9.9,-9.9,26.2,18
 2003/05/05,13:00,-9.9,-9.9,26.2,18.2
 2003/05/05,13:15,-9.9,-9.9,26.2,18.4
 2003/05/05,13:30,-9.9,-9.9,26.2,18.5
 2003/05/05,13:45,-9.9,-9.9,26.3,18.6
 2003/05/05,14:00,-9.9,-9.9,26.4,20
 2003/05/05,14:15,-9.9,-9.9,26.5,20
 2003/05/05,14:30,-9.9,-9.9,26.6,20.2
 2003/05/05,14:45,-9.9,-9.9,26.8,20.4
 2003/05/05,15:00,-9.9,-9.9,26.8,20.5
 2003/05/05,15:15,-9.9,-9.9,27,20.6
 2003/05/05,15:30,-9.9,-9.9,27.1,20.8
 2003/05/05,15:45,-9.9,-9.9,27,21
 2003/05/05,16:00,-9.9,-9.9,27.1,21.1
 2003/05/05,16:15,-9.9,-9.9,27,21.2
 2003/05/05,16:30,-9.9,-9.9,27,21.4
 2003/05/05,16:45,-9.9,-9.9,27,21.5
 2003/05/05,17:00,-9.9,-9.9,26.9,21.6
 2003/05/05,17:15,-9.9,-9.9,26.8,21.8
 2003/05/05,17:30,-9.9,-9.9,26.6,21.9
 2003/05/05,17:45,-9.9,-9.9,26.6,20.2
 2003/05/05,18:00,-9.9,-9.9,26.7,20.4
 2003/05/05,18:15,-9.9,-9.9,26.6,20.6
 2003/05/05,18:30,-9.9,-9.9,26.5,19.7
 2003/05/05,18:45,-9.9,-9.9,26.5,19.9
 2003/05/05,19:00,-9.9,-9.9,26.7,20
 2003/05/05,19:15,-9.9,-9.9,26.8,20.1
 2003/05/05,19:30,-9.9,-9.9,26.8,18.3
 2003/05/05,19:45,-9.9,-9.9,26.9,17.8
 2003/05/05,20:00,-9.9,-9.9,26.9,17.6
 2003/05/05,20:15,-9.9,-9.9,27,17.8
 2003/05/05,20:30,-9.9,-9.9,27,18
 2003/05/05,20:45,-9.9,-9.9,27,18.3
 2003/05/05,21:00,-9.9,-9.9,27,18.5
 2003/05/05,21:15,-9.9,-9.9,27,18.8
 2003/05/05,21:30,-9.9,-9.9,27,19.8
 2003/05/05,21:45,-9.9,-9.9,27,19.2
 2003/05/05,22:00,-9.9,-9.9,26.9,19.4
 2003/05/05,22:15,-9.9,-9.9,26.3,19.5
 2003/05/05,22:30,-9.9,-9.9,26.1,19.7
 2003/05/05,22:45,-9.9,-9.9,26.2,19.9
 2003/05/05,23:00,-9.9,-9.9,26.3,20
 2003/05/05,23:15,-9.9,-9.9,26.4,20.2
 2003/05/05,23:30,-9.9,-9.9,26.4,20.4
 2003/05/05,23:45,-9.9,-9.9,26.5,20.5
 2003/05/06, 0:00,-9.9,-9.9,26.5,20.7
 2003/05/06, 0:15,-9.9,-9.9,26.5,20.9
 2003/05/06, 0:30,-9.9,-9.9,26.5,21
 2003/05/06, 0:45,-9.9,-9.9,26.5,21.2
 2003/05/06, 1:00,-9.9,-9.9,26.5,21.4
 2003/05/06, 1:15,-9.9,-9.9,26.5,21.5
 2003/05/06, 1:30,-9.9,-9.9,26.5,21.7
 2003/05/06, 1:45,-9.9,-9.9,26.5,21.8
 2003/05/06, 2:00,-9.9,-9.9,26.5,21.9
 2003/05/06, 2:15,-9.9,-9.9,26.5,22
 2003/05/06, 2:30,-9.9,-9.9,26.4,22.2
 2003/05/06, 2:45,-9.9,-9.9,26.4,22.4
 2003/05/06, 3:00,-9.9,-9.9,26.4,22.5
 2003/05/06, 3:15,-9.9,-9.9,26.3,22.6
 2003/05/06, 3:30,-9.9,-9.9,26.3,22.7
 2003/05/06, 3:45,-9.9,-9.9,26.2,22.9
 2003/05/06, 4:00,-9.9,-9.9,26.2,22.9
 2003/05/06, 4:15,-9.9,-9.9,26.1,23
 2003/05/06, 4:30,-9.9,-9.9,26.1,23.2
 2003/05/06, 4:45,-9.9,-9.9,26,23.2
 2003/05/06, 5:00,-9.9,-9.9,26,23.4
 2003/05/06, 5:15,-9.9,-9.9,26,23.5
 2003/05/06, 5:30,-9.9,-9.9,26,23.6
 2003/05/06, 5:45,-9.9,-9.9,25.9,20.4
 2003/05/06, 6:00,-9.9,-9.9,25.8,20.6
 2003/05/06, 6:15,-9.9,-9.9,25.8,19.4
 2003/05/06, 6:30,-9.9,-9.9,25.8,18.4
 2003/05/06, 6:45,-9.9,-9.9,25.6,18.6
 2003/05/06, 7:00,-9.9,-9.9,25.5,19
 2003/05/06, 7:15,-9.9,-9.9,25.5,16.9
 2003/05/06, 7:30,-9.9,-9.9,25.5,17.1
 2003/05/06, 7:45,-9.9,-9.9,25.5,17.5
 2003/05/06, 8:00,-9.9,-9.9,25.4,17.7
 2003/05/06, 8:15,-9.9,-9.9,25.4,17.9
 2003/05/06, 8:30,-9.9,-9.9,25.4,18.1
 2003/05/06, 8:45,-9.9,-9.9,25.4,18.2
 2003/05/06, 9:00,-9.9,-9.9,25.4,18.4
 2003/05/06, 9:15,-9.9,-9.9,25.5,18.6
 2003/05/06, 9:30,-9.9,-9.9,25.5,18.8
 2003/05/06, 9:45,-9.9,-9.9,25.6,19
 2003/05/06,10:00,-9.9,-9.9,25.6,19.1
 2003/05/06,10:15,-9.9,-9.9,25.8,19.2
 2003/05/06,10:30,-9.9,-9.9,25.9,19.4
 2003/05/06,10:45,-9.9,-9.9,26,19.5
 2003/05/06,11:00,-9.9,-9.9,26,19.7
 2003/05/06,11:15,-9.9,-9.9,26,19.9
 2003/05/06,11:30,-9.9,-9.9,26.1,20
 2003/05/06,11:45,-9.9,-9.9,26.1,20.1
 2003/05/06,12:00,-9.9,-9.9,26.2,20.3
 2003/05/06,12:15,-9.9,-9.9,26.3,20.5
 2003/05/06,12:30,-9.9,-9.9,26.3,20.6
 2003/05/06,12:45,-9.9,-9.9,26.4,20.8
 2003/05/06,13:00,-9.9,-9.9,26.4,20.9
 2003/05/06,13:15,-9.9,-9.9,26.5,21
 2003/05/06,13:30,-9.9,-9.9,26.5,21.2
 2003/05/06,13:45,-9.9,-9.9,26.6,21.4
 2003/05/06,14:00,-9.9,-9.9,26.6,21.5
 2003/05/06,14:15,-9.9,-9.9,26.7,21.6
 2003/05/06,14:30,-9.9,-9.9,26.7,21.8
 2003/05/06,14:45,-9.9,-9.9,26.8,22
 2003/05/06,15:00,-9.9,-9.9,26.8,22.1
 2003/05/06,15:15,-9.9,-9.9,26.9,22.2
 2003/05/06,15:30,-9.9,-9.9,26.9,22.3
 2003/05/06,15:45,-9.9,-9.9,26.9,22.5
 2003/05/06,16:00,-9.9,-9.9,26.9,22.6
 2003/05/06,16:15,-9.9,-9.9,26.9,22.7
 2003/05/06,16:30,-9.9,-9.9,26.9,22.8
 2003/05/06,16:45,-9.9,-9.9,26.6,22.1
 2003/05/06,17:00,-9.9,-9.9,26.5,21.1
 2003/05/06,17:15,-9.9,-9.9,26.5,21
 2003/05/06,17:30,-9.9,-9.9,26.5,21.2
 2003/05/06,17:45,-9.9,-9.9,26.5,21.4
 2003/05/06,18:00,-9.9,-9.9,26.5,21.5
 2003/05/06,18:15,-9.9,-9.9,26.5,21.6
 2003/05/06,18:30,-9.9,-9.9,26.6,21.8
 2003/05/06,18:45,-9.9,-9.9,26.6,22
 2003/05/06,19:00,-9.9,-9.9,26.6,22.1
 2003/05/06,19:15,-9.9,-9.9,26.6,22.2
 2003/05/06,19:30,-9.9,-9.9,26.6,22.4
 2003/05/06,19:45,-9.9,-9.9,26.6,22.5
 2003/05/06,20:00,-9.9,-9.9,26.6,22.6
 2003/05/06,20:15,-9.9,-9.9,26.6,22.3
 2003/05/06,20:30,-9.9,-9.9,26.6,22
 2003/05/06,20:45,-9.9,-9.9,26.6,22.1
 2003/05/06,21:00,-9.9,-9.9,26.6,19.8
 2003/05/06,21:15,-9.9,-9.9,26.5,20
 2003/05/06,21:30,-9.9,-9.9,26.6,20.2
 2003/05/06,21:45,-9.9,-9.9,26.6,20.4
 2003/05/06,22:00,-9.9,-9.9,26.6,20.6
 2003/05/06,22:15,-9.9,-9.9,26.5,20.8
 2003/05/06,22:30,-9.9,-9.9,26.5,20.6
 2003/05/06,22:45,-9.9,-9.9,26.5,20.5
 2003/05/06,23:00,-9.9,-9.9,26.5,20.7
 2003/05/06,23:15,-9.9,-9.9,26.5,20.9
 2003/05/06,23:30,-9.9,-9.9,26.6,21
 2003/05/06,23:45,-9.9,-9.9,26.6,21.2
 2003/05/07, 0:00,-9.9,-9.9,26.6,21.3
 2003/05/07, 0:15,-9.9,-9.9,26.5,21.5
 2003/05/07, 0:30,-9.9,-9.9,26.5,21.7
 2003/05/07, 0:45,-9.9,-9.9,26.5,21.8
 2003/05/07, 1:00,-9.9,-9.9,26.4,21.9
 2003/05/07, 1:15,-9.9,-9.9,26.4,22
 2003/05/07, 1:30,-9.9,-9.9,26.4,22.2
 2003/05/07, 1:45,-9.9,-9.9,26.3,22.4
 2003/05/07, 2:00,-9.9,-9.9,26.3,22.5
 2003/05/07, 2:15,-9.9,-9.9,26.2,22.5
 2003/05/07, 2:30,-9.9,-9.9,26.2,22.7
 2003/05/07, 2:45,-9.9,-9.9,26.1,22.8
 2003/05/07, 3:00,-9.9,-9.9,26.1,22.9
 2003/05/07, 3:15,-9.9,-9.9,26,23
 2003/05/07, 3:30,-9.9,-9.9,26,23.1
 2003/05/07, 3:45,-9.9,-9.9,26,23.2
 2003/05/07, 4:00,-9.9,-9.9,25.9,23.3
 2003/05/07, 4:15,-9.9,-9.9,25.9,23.5
 2003/05/07, 4:30,-9.9,-9.9,25.8,23.5
 2003/05/07, 4:45,-9.9,-9.9,25.8,23.6
 2003/05/07, 5:00,-9.9,-9.9,25.8,23.7
 2003/05/07, 5:15,-9.9,-9.9,25.7,23.8
 2003/05/07, 5:30,-9.9,-9.9,25.7,23.6
 2003/05/07, 5:45,-9.9,-9.9,25.7,23.6
 2003/05/07, 6:00,-9.9,-9.9,25.7,23.7
 2003/05/07, 6:15,-9.9,-9.9,25.6,20.1
 2003/05/07, 6:30,-9.9,-9.9,25.7,17.5
 2003/05/07, 6:45,-9.9,-9.9,25.6,17.8
 2003/05/07, 7:00,-9.9,-9.9,25.6,16.6
 2003/05/07, 7:15,-9.9,-9.9,25.6,16.9
 2003/05/07, 7:30,-9.9,-9.9,25.6,17.1
 2003/05/07, 7:45,-9.9,-9.9,25.6,17.4
 2003/05/07, 8:00,-9.9,-9.9,25.6,17.6
 2003/05/07, 8:15,-9.9,-9.9,25.6,17.8
 2003/05/07, 8:30,-9.9,-9.9,25.6,18
 2003/05/07, 8:45,-9.9,-9.9,25.7,18.1
 2003/05/07, 9:00,-9.9,-9.9,25.7,18.4
 2003/05/07, 9:15,-9.9,-9.9,25.8,18.5
 2003/05/07, 9:30,-9.9,-9.9,25.9,18.7
 2003/05/07, 9:45,-9.9,-9.9,26,19
 2003/05/07,10:00,-9.9,-9.9,26.1,19.1
 2003/05/07,10:15,-9.9,-9.9,26.2,19.2
 2003/05/07,10:30,-9.9,-9.9,26.3,19.4
 2003/05/07,10:45,-9.9,-9.9,26.3,19.5
 2003/05/07,11:00,-9.9,-9.9,26.4,19.7